User: anonymous   Login
Location: Unspecified
(0.0000°N, 0.0000°E)
Time: 15:38:53
(UTC+02:00)
Language:

SeaSat 1 - Orbit

View from above orbital plane
View from above orbital plane
View from above satellite
View from above satellite

Ground track
Ground track

The orbit data is extracted from the following two-line orbital elements,

1 10967U 78064A   16121.81901638  .00000023  00000-0  47087-4 0  9990
2 10967 108.0021 157.9505 0002786 251.9358 108.1483 14.43540927987092
Epoch (UTC): 30 April 2016 19:39:23
Eccentricity: 0.0002786
inclination: 108.0021°
perigee height: 745 km
apogee height: 749 km
right ascension of ascending node: 157.9505°
argument of perigee: 251.9358°
revolutions per day: 14.43540927
mean anomaly at epoch: 108.1483°
orbit number at epoch: 98709

The dashed part of the orbit path shows where the satellite is in the earth's shadow,  

DLR